Central Park, NY

12:27 AM EDT on March 29, 2017 (GMT -0400)
Central Park

Weather History for KNYC - February, 2014

Change the Weather History Date:

Thursday, February 20, 2014

  Actual Average Record
Temperature  
Mean Temperature 44 °F 36 °F  
Max Temperature 51 °F 43 °F 69 °F (1939)
Min Temperature 37 °F 30 °F 2 °F (2015)
Degree Days  
Heating Degree Days 21 29  
Month to date heating degree days 678 609  
Since 1 July heating degree days 3421 3298  
Cooling Degree Days 0 0  
Month to date cooling degree days 0 0  
Year to date cooling degree days 0 0  
Moisture  
Dew Point 29 °F    
Average Humidity 63    
Maximum Humidity 92    
Minimum Humidity 33    
Precipitation  
Precipitation 0.03 in 0.11 in 3.07 in (1898)
Month to date precipitation 5.36 2.16  
Year to date precipitation 8.15 5.81  
Snow  
Snow 0.00 in 0.30 in 12.50 in (1921)
Month to date snowfall 28.8 6.7  
Since 1 July snowfall 57.1 18.8  
Snow Depth 15.00 in    
Sea Level Pressure  
Sea Level Pressure 30.14 in    
Wind  
Wind Speed 5 mph (NE)    
Max Wind Speed 14 mph    
Max Gust Speed 20 mph    
Visibility 7 miles    
Events Rain    
T = Trace of Precipitation, MM = Missing Value Source: NWS Daily Summary

Daily Weather History Graph

Daily Weather History Graph

Search for Another Location

Airport or City:

Trip Planner

Search our weather history database for the weather conditions in past years. The results will help you decide how hot, cold, wet, or windy it might be!

Date:

Astronomy

Feb. 20, 2014 Rise Set
Actual Time 6:43 AM EST 5:36 PM EST
Civil Twilight 6:15 AM EST 6:04 PM EST
Nautical Twilight 5:43 AM EST 6:36 PM EST
Astronomical Twilight 5:11 AM EST 7:08 PM EST
Moon 11:30 PM EST (2/20) 9:22 AM EST (2/20)
Length of Visible Light 11h 49m
Length of Day
10h 53m
Waning Gibbous, 71% of the Moon is Illuminated
Feb 20
Waning Gibbous
Feb 22
Last Quarter
Mar 1
New
Mar 8
First Quarter
Mar 16
Full

Hourly Weather History & Observations

Time (EST) Temp. Windchill Dew Point Humidity Pressure Visibility Wind Dir Wind Speed Gust Speed Precip Events Conditions
12:51 AM 43.0 °F 38.2 °F 27.0 °F 53% 30.04 in 10.0 mi West 8.1 mph 24.2 mph N/A   Clear
1:51 AM 42.1 °F 36.1 °F 26.1 °F 53% 30.10 in 10.0 mi WNW 10.4 mph - N/A   Clear
2:51 AM 42.1 °F 39.2 °F 25.0 °F 51% 30.12 in 10.0 mi Variable 4.6 mph - N/A   Clear
3:51 AM 39.0 °F 34.8 °F 25.0 °F 57% 30.14 in 10.0 mi West 5.8 mph - N/A   Clear
4:51 AM 37.9 °F 34.4 °F 24.1 °F 57% 30.15 in 10.0 mi Variable 4.6 mph - N/A   Clear
5:51 AM 37.9 °F - 25.0 °F 60% 30.18 in 10.0 mi Calm Calm - N/A   Clear
6:51 AM 39.0 °F 34.8 °F 24.1 °F 55% 30.21 in 10.0 mi Variable 5.8 mph - N/A   Clear
7:51 AM 39.0 °F - 24.1 °F 55% 30.20 in 10.0 mi Calm Calm - N/A   Clear
8:51 AM 41.0 °F - 24.1 °F 51% 30.24 in 10.0 mi Calm Calm - N/A   Clear
9:51 AM 42.1 °F 38.4 °F 25.0 °F 51% 30.25 in 10.0 mi West 5.8 mph - N/A   Clear
10:51 AM 43.0 °F 39.5 °F 25.0 °F 49% 30.25 in 9.0 mi Variable 5.8 mph - N/A   Clear
11:51 AM 46.0 °F 42.5 °F 25.0 °F 44% 30.23 in 10.0 mi West 6.9 mph - N/A   Clear
12:51 PM 48.0 °F - 26.1 °F 42% 30.20 in 10.0 mi Variable 3.5 mph - N/A   Clear
1:51 PM 50.0 °F - 23.0 °F 35% 30.19 in 10.0 mi ENE 3.5 mph - N/A   Clear
2:51 PM 48.9 °F - 26.1 °F 41% 30.17 in 10.0 mi Variable 4.6 mph - N/A   Overcast
3:51 PM 46.0 °F 44.8 °F 23.0 °F 40% 30.17 in 10.0 mi Variable 3.5 mph - N/A   Overcast
4:51 PM 43.0 °F 39.5 °F 24.1 °F 47% 30.15 in 10.0 mi SSE 5.8 mph - N/A   Overcast
5:51 PM 41.0 °F 38.0 °F 26.1 °F 55% 30.14 in 10.0 mi Variable 4.6 mph - 0.00 in   Overcast
8:51 PM 39.9 °F 37.8 °F 36.0 °F 86% 30.12 in 3.0 mi NNE 3.5 mph - 0.00 in   Overcast
8:58 PM 39.0 °F 36.8 °F 36.0 °F 89% 30.13 in 2.0 mi East 3.5 mph - 0.01 in   Overcast
9:09 PM 39.0 °F 36.8 °F 36.0 °F 89% 30.14 in 1.8 mi North 3.5 mph - 0.01 in Rain Light Rain
9:51 PM 39.9 °F 35.1 °F 37.0 °F 89% 30.08 in 1.8 mi NE 6.9 mph - 0.03 in   Overcast
10:08 PM 39.9 °F 35.8 °F 37.0 °F 89% 30.10 in 2.0 mi NE 5.8 mph - N/A   Overcast
10:17 PM 39.9 °F 36.7 °F 37.0 °F 89% 30.10 in 1.8 mi ENE 4.6 mph - N/A   Overcast
10:42 PM 39.9 °F 35.1 °F 37.0 °F 89% 30.08 in 2.5 mi ENE 6.9 mph - N/A   Overcast
10:51 PM 39.9 °F 35.1 °F 37.0 °F 89% 30.06 in 3.0 mi ENE 6.9 mph - N/A   Overcast
11:29 PM 37.0 °F 31.6 °F 34.0 °F 89% 30.07 in 2.5 mi East 6.9 mph - N/A   Overcast
11:51 PM 37.0 °F 31.6 °F 34.0 °F 89% 30.04 in 2.5 mi ENE 6.9 mph - N/A   Overcast